• In United Kingdom
  • List of Countries
  • For 7 days
  • Water Temperature
  • Satellite Maps
  • Weather Map
  • Weather Widgets
  • user-avatar
    Login

    Hourly Weather Neiva

    Today, 20 August, Monday

    Time Temperature Precipitation Wind Pressure Humidity
    00:00 +26°C° 0 mm 2 mps 723 mmHg 59%
    01:00 +25°C° 0 mm 2 mps 723 mmHg 60%
    02:00 +25°C° 0 mm 2 mps 723 mmHg 61%
    03:00 +25°C° 0 mm 2 mps 722 mmHg 62%
    04:00 +25°C° 0 mm 2 mps 722 mmHg 63%
    05:00 +25°C° 0 mm 2 mps 722 mmHg 62%
    06:00 +26°C° 0 mm 2 mps 723 mmHg 61%
    07:00 +26°C° 0 mm 2 mps 723 mmHg 60%
    08:00 +28°C° 0 mm 2 mps 723 mmHg 55%
    09:00 +30°C° 0 mm 2 mps 723 mmHg 50%
    10:00 +34°C° 0 mm 2 mps 723 mmHg 45%
    11:00 +35°C° 0.1 mm 2 mps 723 mmHg 43%
    12:00 +36°C° 0.1 mm 2 mps 722 mmHg 41%
    13:00 +37°C° 0.1 mm 3 mps 721 mmHg 39%
    14:00 +36°C° 0.1 mm 3 mps 721 mmHg 41%
    15:00 +36°C° 0.1 mm 3 mps 720 mmHg 42%
    16:00 +35°C° 0.1 mm 3 mps 720 mmHg 44%
    17:00 +33°C° 0.2 mm 3 mps 720 mmHg 51%
    18:00 +30°C° 0.2 mm 2 mps 721 mmHg 59%
    19:00 +28°C° 0.2 mm 2 mps 721 mmHg 67%
    20:00 +27°C° 0.1 mm 2 mps 722 mmHg 67%
    21:00 +26°C° 0.1 mm 2 mps 722 mmHg 67%
    22:00 +26°C° 0.1 mm 2 mps 723 mmHg 68%
    23:00 +26°C° 0 mm 2 mps 723 mmHg 68%

    Tomorrow, 21 August, Tuesday

    Time Temperature Precipitation Wind Pressure Humidity
    00:00 +25°C° 0 mm 2 mps 723 mmHg 68%
    01:00 +25°C° 0 mm 2 mps 723 mmHg 68%
    02:00 +25°C° 0.1 mm 2 mps 723 mmHg 68%
    03:00 +25°C° 0.1 mm 2 mps 722 mmHg 69%
    04:00 +25°C° 0.1 mm 2 mps 722 mmHg 69%
    05:00 +25°C° 0.1 mm 2 mps 722 mmHg 68%
    06:00 +26°C° 0.1 mm 2 mps 723 mmHg 67%
    07:00 +26°C° 0.1 mm 2 mps 723 mmHg 65%
    08:00 +28°C° 0.1 mm 2 mps 723 mmHg 60%
    09:00 +30°C° 0.1 mm 2 mps 724 mmHg 54%
    10:00 +32°C° 0.1 mm 2 mps 724 mmHg 48%
    11:00 +34°C° 0.2 mm 3 mps 723 mmHg 46%
    12:00 +35°C° 0.2 mm 3 mps 722 mmHg 44%
    13:00 +36°C° 0.2 mm 3 mps 722 mmHg 42%
    14:00 +35°C° 0.2 mm 3 mps 721 mmHg 44%
    15:00 +35°C° 0.2 mm 3 mps 720 mmHg 45%
    16:00 +34°C° 0.2 mm 3 mps 720 mmHg 47%
    17:00 +31°C° 0.2 mm 3 mps 720 mmHg 54%
    18:00 +29°C° 0.2 mm 2 mps 721 mmHg 62%
    19:00 +27°C° 0.2 mm 2 mps 721 mmHg 69%
    20:00 +27°C° 0.2 mm 2 mps 722 mmHg 69%
    21:00 +26°C° 0.2 mm 2 mps 723 mmHg 70%
    22:00 +26°C° 0.2 mm 2 mps 723 mmHg 70%
    23:00 +26°C° 0.3 mm 2 mps 723 mmHg 70%

    Day after tomorrow, 22 August, Wednesday

    Time Temperature Precipitation Wind Pressure Humidity
    00:00 +25°C° 0.3 mm 2 mps 723 mmHg 70%
    01:00 +25°C° 0.3 mm 2 mps 723 mmHg 70%
    02:00 +25°C° 0.2 mm 2 mps 722 mmHg 71%
    03:00 +25°C° 0.2 mm 2 mps 722 mmHg 71%
    04:00 +25°C° 0.2 mm 2 mps 722 mmHg 71%
    05:00 +25°C° 0.1 mm 2 mps 722 mmHg 70%
    06:00 +26°C° 0.1 mm 2 mps 723 mmHg 69%
    07:00 +26°C° 0.1 mm 2 mps 723 mmHg 67%
    08:00 +28°C° 0 mm 2 mps 723 mmHg 59%
    09:00 +31°C° 0 mm 2 mps 723 mmHg 51%
    10:00 +34°C° 0 mm 2 mps 724 mmHg 42%
    11:00 +35°C° 0 mm 3 mps 723 mmHg 40%
    12:00 +36°C° 0 mm 3 mps 722 mmHg 37%
    13:00 +37°C° 0 mm 3 mps 721 mmHg 34%
    14:00 +37°C° 0 mm 3 mps 721 mmHg 36%
    15:00 +36°C° 0 mm 3 mps 720 mmHg 37%
    16:00 +36°C° 0 mm 3 mps 719 mmHg 39%
    17:00 +33°C° 0 mm 3 mps 720 mmHg 46%
    18:00 +30°C° 0 mm 2 mps 720 mmHg 53%
    19:00 +28°C° 0 mm 2 mps 721 mmHg 60%
    20:00 +27°C° 0 mm 2 mps 722 mmHg 60%
    21:00 +27°C° 0 mm 2 mps 722 mmHg 60%
    22:00 +26°C° 0 mm 2 mps 723 mmHg 61%
    23:00 +26°C° 0 mm 2 mps 723 mmHg 61%

    23 August, Thursday

    Time Temperature Precipitation Wind Pressure Humidity
    00:00 +26°C° 0 mm 2 mps 722 mmHg 62%
    01:00 +25°C° 0 mm 2 mps 722 mmHg 62%
    02:00 +25°C° 0.1 mm 2 mps 722 mmHg 63%
    03:00 +25°C° 0.1 mm 2 mps 722 mmHg 65%
    04:00 +25°C° 0.1 mm 1 mps 721 mmHg 66%
    05:00 +25°C° 0.3 mm 1 mps 722 mmHg 66%
    06:00 +25°C° 0.3 mm 1 mps 722 mmHg 66%
    07:00 +26°C° 0.3 mm 1 mps 723 mmHg 66%
    08:00 +28°C° 0.2 mm 1 mps 723 mmHg 59%
    09:00 +30°C° 0.2 mm 2 mps 723 mmHg 52%
    10:00 +32°C° 0.2 mm 2 mps 724 mmHg 45%
    11:00 +34°C° 0.1 mm 2 mps 723 mmHg 42%
    12:00 +36°C° 0.1 mm 2 mps 722 mmHg 39%
    13:00 +37°C° 0.1 mm 2 mps 721 mmHg 37%
    14:00 +37°C° 0 mm 2 mps 720 mmHg 37%
    15:00 +36°C° 0 mm 2 mps 719 mmHg 38%
    16:00 +36°C° 0 mm 3 mps 719 mmHg 39%
    17:00 +34°C° 0 mm 2 mps 719 mmHg 46%
    18:00 +30°C° 0 mm 2 mps 720 mmHg 53%
    19:00 +28°C° 0 mm 2 mps 720 mmHg 60%
    20:00 +27°C° 0 mm 2 mps 721 mmHg 61%
    21:00 +27°C° 0 mm 2 mps 721 mmHg 62%
    22:00 +26°C° 0 mm 2 mps 722 mmHg 63%
    23:00 +26°C° 0 mm 2 mps 722 mmHg 63%

    24 August, Friday

    Time Temperature Precipitation Wind Pressure Humidity
    00:00 +26°C° 0 mm 2 mps 722 mmHg 63%
    01:00 +26°C° 0 mm 1 mps 722 mmHg 63%
    02:00 +25°C° 0 mm 1 mps 721 mmHg 63%
    03:00 +25°C° 0 mm 1 mps 721 mmHg 63%
    04:00 +25°C° 0 mm 1 mps 721 mmHg 63%
    05:00 +25°C° 0.1 mm 1 mps 721 mmHg 62%
    06:00 +26°C° 0.1 mm 1 mps 722 mmHg 61%
    07:00 +26°C° 0.1 mm 1 mps 722 mmHg 60%
    08:00 +28°C° 0.1 mm 1 mps 722 mmHg 56%
    09:00 +30°C° 0.1 mm 1 mps 722 mmHg 53%
    10:00 +31°C° 0.1 mm 2 mps 723 mmHg 49%
    11:00 +32°C° 0.2 mm 2 mps 722 mmHg 48%
    12:00 +34°C° 0.2 mm 2 mps 721 mmHg 47%
    13:00 +35°C° 0.2 mm 2 mps 721 mmHg 46%
    14:00 +34°C° 0.3 mm 2 mps 720 mmHg 47%
    15:00 +34°C° 0.3 mm 2 mps 720 mmHg 48%
    16:00 +34°C° 0.3 mm 2 mps 719 mmHg 49%
    17:00 +31°C° 0.2 mm 2 mps 720 mmHg 55%
    18:00 +29°C° 0.2 mm 2 mps 720 mmHg 62%
    19:00 +27°C° 0.2 mm 2 mps 721 mmHg 68%
    20:00 +27°C° 0.2 mm 2 mps 722 mmHg 69%
    21:00 +26°C° 0.2 mm 2 mps 722 mmHg 69%
    22:00 +26°C° 0.2 mm 2 mps 723 mmHg 69%
    23:00 +26°C° 0.1 mm 2 mps 722 mmHg 68%

    25 August, Saturday

    Time Temperature Precipitation Wind Pressure Humidity
    00:00 +26°C° 0.1 mm 2 mps 722 mmHg 67%
    01:00 +25°C° 0.1 mm 1 mps 722 mmHg 67%
    02:00 +25°C° 0.1 mm 1 mps 721 mmHg 66%
    03:00 +25°C° 0.1 mm 1 mps 721 mmHg 66%
    04:00 +25°C° 0.1 mm 1 mps 721 mmHg 66%
    05:00 +26°C° 0.1 mm 1 mps 722 mmHg 65%
    06:00 +26°C° 0.1 mm 1 mps 722 mmHg 64%
    07:00 +26°C° 0.1 mm 1 mps 723 mmHg 63%
    08:00 +28°C° 0.1 mm 1 mps 723 mmHg 58%
    09:00 +30°C° 0.1 mm 2 mps 723 mmHg 53%
    10:00 +32°C° 0.1 mm 2 mps 724 mmHg 48%
    11:00 +32°C° 0.2 mm 2 mps 723 mmHg 48%
    12:00 +34°C° 0.2 mm 2 mps 722 mmHg 47%
    13:00 +34°C° 0.2 mm 3 mps 722 mmHg 47%
    14:00 +34°C° 0.2 mm 3 mps 721 mmHg 50%
    15:00 +33°C° 0.2 mm 3 mps 721 mmHg 53%
    16:00 +31°C° 0.2 mm 3 mps 720 mmHg 56%
    17:00 +30°C° 0.2 mm 3 mps 721 mmHg 60%
    18:00 +28°C° 0.2 mm 2 mps 721 mmHg 65%
    19:00 +27°C° 0.2 mm 2 mps 722 mmHg 69%
    20:00 +27°C° 0.2 mm 2 mps 722 mmHg 69%
    21:00 +26°C° 0.2 mm 2 mps 723 mmHg 69%
    22:00 +26°C° 0.2 mm 2 mps 723 mmHg 69%
    23:00 +26°C° 0 mm 2 mps 723 mmHg 69%
    Show more